• MPC Preparation (Info)

  • MPEC 2014-J10 : 2014 HB177

    The following Minor Planet Electronic Circular may be linked-to from your own Web pages, but must not otherwise be redistributed electronically.

    A form allowing access to any MPEC is at the bottom of this page.


    Read MPEC 2014-J09 Read MPEC 2014-J11


    M.P.E.C. 2014-J10                                Issued 2014 May 2, 14:45 UT
    
         The Minor Planet Electronic Circulars contain information on unusual
             minor planets and routine data on comets.  They are published
       on behalf of Commission 20 of the International Astronomical Union by the
              Minor Planet Center, Smithsonian Astrophysical Observatory,
                              Cambridge, MA 02138, U.S.A.
    
                 Prepared using the Tamkin Foundation Computer Network
    
                                  MPC@CFA.HARVARD.EDU
                URL https://www.minorplanetcenter.net/    ISSN 1523-6714
    
                                      2014 HB177
    
    Observations:
         K14HH7B  C2014 04 29.36076 14 57 39.098+00 26 23.92         21.1 wLEJ010F51
         K14HH7B* C2014 04 29.37331 14 57 40.677+00 26 04.27         21.2 wLEJ010F51
         K14HH7B  C2014 04 29.38589 14 57 42.203+00 25 44.22         21.3 wLEJ010F51
         K14HH7B  C2014 04 30.41614 15 02 30.821-00 06 42.82         20.7 wLEJ010F51
         K14HH7B  C2014 04 30.42810 15 02 32.927-00 07 09.75         20.9 wLEJ010F51
         K14HH7B  C2014 04 30.44010 15 02 35.015-00 07 37.03         20.6 wLEJ010F51
         K14HH7B KC2014 05 02.51372 15 20 10.35 -01 57 51.6          20.7 RoEJ010474
         K14HH7B KC2014 05 02.51479 15 20 10.93 -01 57 56.3          19.8 RoEJ010474
         K14HH7B KC2014 05 02.51585 15 20 11.58 -01 58 02.8                oEJ010474
         K14HH7B KC2014 05 02.51692 15 20 12.17 -01 58 07.9          20.4 RoEJ010474
         K14HH7B KC2014 05 02.51799 15 20 12.85 -01 58 13.5          19.6 RoEJ010474
         K14HH7B _C2014 05 02.55458015 20 12.088-02 12 18.34         19.5 RtEJ010568
         K14HH7B _C2014 05 02.55583315 20 12.808-02 12 25.10         19.5 RtEJ010568
         K14HH7B _C2014 05 02.55708715 20 13.532-02 12 32.00         18.9 RtEJ010568
    
    Observer details:
    474 Mount John Observatory, Lake Tekapo.  Observers A. C. Gilmore,
        P. M. Kilmartin.  Measurer P. M. Kilmartin.  1.0-m f/7.7 reflector + CCD.
    568 Mauna Kea.  Observers R. J. Wainscoat, L. Wells.  Measurer M. Micheli.
        3.6-m Canada-France-Hawaii Telescope + CCD.
    F51 Pan-STARRS 1, Haleakala.  Observers N. Primak, A. Schultz, T. Goggia,
        M. Willman.  Measurers PS1 Science Consortium, P. Veres.  1.8-m
        Ritchey-Chretien + CCD.
    
    Orbital elements:
    2014 HB177                                               Earth MOID = 0.0005 AU
    Epoch 2014 May 23.0 TT = JDT 2456800.5                  MPC
    M 322.82015              (2000.0)            P               Q
    n   0.83706316     Peri.  251.57340     +0.45185245     +0.89105446
    a   1.1150574      Node    45.36855     -0.79396810     +0.42367454
    e   0.1950448      Incl.    3.46631     -0.40674811     +0.16285525
    P   1.18           H   28.1           G   0.15           U   6
    Residuals in seconds of arc
    140429 F51  0.0   0.0     140430 F51  0.1+  0.2-    140502 474  0.3+  0.1+
    140429 F51  0.0   0.1+    140502 474  0.5+  0.4-    140502 568  0.1-  0.1+
    140429 F51  0.0   0.1-    140502 474  0.2-  0.5+    140502 568  0.1-  0.1+
    140430 F51  0.2-  0.2+    140502 474  0.2+  0.4-    140502 568  0.1-  0.0
    140430 F51  0.0   0.1+    140502 474  0.4-  0.1+
    
    Ephemeris:
    2014 HB177               a,e,i = 1.12, 0.20, 3                   q = 0.8976
    Date    TT    R. A. (2000) Decl.     Delta      r     Elong.  Phase     V
    2014 04 02    14 28 19.7 +01 20 23   0.1343  1.1210   153.3    23.7    25.1
    ...
    2014 04 17    14 38 07.0 +01 55 03   0.07145 1.0714   160.9    17.8    23.4
    ...
    2014 04 25    14 46 28.5 +01 32 55   0.04115 1.0453   162.7    16.6    22.2
    ...
    2014 05 01    15 05 57.9 -00 28 14   0.01941 1.0261   163.3    16.4    20.5
    2014 05 02    15 14 12.2 -01 24 32   0.01587 1.0229   163.2    16.5    20.0
    2014 05 03    15 27 07.0 -02 53 36   0.01237 1.0198   162.8    17.0    19.5
    ...
    2014 05 09    01 26 24.8 -10 46 11   0.01023 1.0012    36.7   142.9    25.4
    ...
    2014 05 17    02 19 57.8 -04 39 53   0.03874 0.9778    30.0   148.8    29.2
    ...
    2014 06 01    02 36 11.6 -01 48 40   0.09581 0.9397    37.4   139.0    29.6
    
    A. U. Tomatic                (C) Copyright 2014 MPC           M.P.E.C. 2014-J10
    

    Read MPEC 2014-J09 Read MPEC 2014-J11


    MPEC number:

    Enter an MPEC number in one of the following forms:

    • 1997-B01 (the full form)
    • J97B01 (the packed version of the full form)
    • B01 (the abbreviated form)